www.pogodaiklimat.ru
Время
(UTC), дата
18 28.05
21 28.05
00 29.05
03 29.05
06 29.05
09 29.05
12 29.05
15 29.05
18 29.05
21 29.05
00 30.05
03 30.05
06 30.05
09 30.05
12 30.05
15 30.05
18 30.05
21 30.05
00 31.05
03 31.05
06 31.05
09 31.05
12 31.05
15 31.05
18 31.05
21 31.05
00 1.06
03 1.06
06 1.06
09 1.06
12 1.06
15 1.06
18 1.06
21 1.06
00 2.06
03 2.06
06 2.06
09 2.06
12 2.06
15 2.06
18 2.06
21 2.06
00 3.06
03 3.06
06 3.06
09 3.06
12 3.06
15 3.06
18 3.06
21 3.06
00 4.06
03 4.06
06 4.06
09 4.06
12 4.06
15 4.06
Ветер
(напр.,м/с)
Видим. Явления Облачность Т
(С)
Тd
(С)
f
(%)
Тe
(С)
Тes
(С)
Комфортность P
(гПа)
Po
(гПа)
Тmin
(С)
Tmax
(С)
R
(мм)
R24
(мм)
S
(см)
З 1 2400 м дымка 4/3 600 м
[Sc Ci fib]
+13.2 +12.3 94 +13 +13 по сезону 1007.0 1002.0 +16.8 27
З 1 9000 м дымка 10/10 150 м
[St]
+13.3 +12.5 95 +13 +13 тепло 1008.3 1003.3
З 2 8000 м дымка 10/8 210 м
[Sc Ac trans]
+13.4 +12.1 92 +13 +13 тепло 1008.8 1003.8
З 1 9000 м дымка {ливн. осадки} 10/10 210 м
[Sc]
+12.8 +11.9 94 +13 +13 тепло 1009.2 1004.2
З 1 13 км в посл. час ливневой дождь 10/10 300 м
[Cb calv]
+13.5 +12.1 91 +14 +14 тепло 1009.6 1004.6 +12.6 0.1
СЗ 2 50 км 8/6 480 м
[Sc diur, vesp Ci fib]
+17.3 +11.1 67 +18 +24 тепло 1009.5 1004.5
СЗ 1 21 км 10/8 630 м
[Cb calv Ci fib]
+16.2 +11.8 75 +17 +20 тепло 1009.4 1004.4
З 1 40 км {ливн. осадки} 10/8 600 м
[Cb calv Ac cuf]
+16.6 +11.5 72 +17 +18 тепло 1008.9 1003.9
З 1 40 км {ливн. осадки} 10/6 1350 м
[Sc diur, vesp Ac und Ci fib]
+15.1 +10.9 76 +16 +16 тепло 1009.1 1004.1 +18.3 0.0
З 2 50 км 10/8 1110 м
[Sc Ac und]
+13.5 +11.2 86 +13 +13 тепло 1008.7 1003.7
З 2 35 км 10/10 1110 м
[Sc]
+13.2 +11.4 89 +12 +12 прохладно 1007.8 1002.8
З 2 10 км слаб. ливневой дождь 10/10 300 м
[Cb calv]
+12.8 +11.9 94 +12 +12 холодно 1007.5 1002.5
З 2 35 км слаб. ливневой дождь 10/6 300 м
[Cb calv Ac und]
+13.6 +11.3 86 +13 +14 холодно 1007.8 1002.8 +12.7 0.4
З 3 45 км в посл. час ливневой дождь 8/4 270 м
[Cb calv Ac und]
+15.1 +10.7 75 +14 +19 холодно 1008.2 1003.2
З 3 45 км {ливн. осадки} 10/6 930 м
[Cb calv Ac cuf]
+17.0 +10.1 64 +17 +18 прохладно 1008.8 1003.8
З 3 50 км 8/3 600 м
[Cu hum Ci fib]
+17.8 +9.2 57 +18 +20 по сезону 1009.4 1004.4
ЮЗ 1 40 км в посл. час ливневой дождь 8/4 600 м
[Cb calv Ac cuf Ci fib]
+13.3 +11.2 87 +13 +13 холодно 1010.7 1005.7 +18.5 3
ЮЗ 2 45 км 8/0
[Ac trans Ci fib]
+13.7 +11.4 86 +13 +13 прохладно 1010.7 1005.7
ЮЗ 2 30 км 8/3 600 м
[Sc Ac trans Ci fib]
+13.8 +11.3 85 +13 +13 прохладно 1009.7 1004.7
ЮЗ 3 30 км 3/0
[Ci fib]
+12.8 +9.6 81 +11 +12 холодно 1009.0 1004.0
Ю 1 50 км 8/0
[Ac trans Cc]
+17.5 +9.2 58 +19 +25 по сезону 1009.6 1004.6 +12.5
Ю 4 40 км 9/3 600 м
[Cu med, cong Ci fib]
+17.9 +13.0 73 +18 +25 по сезону 1009.2 1004.3
Ю 5 29 км 9/4 600 м
[Cu med, cong Ci]
+18.0 +12.9 72 +18 +22 прохладно 1008.6 1003.7
ЮЗ 1 30 км 10/5 600 м
[Sc diur, vesp Ac cuf]
+17.8 +11.8 68 +19 +20 по сезону 1008.1 1003.2
СЗ 1 50 км {ливн. осадки} 8/0
[Ac und]
+15.0 +10.0 72 +16 +16 прохладно 1009.1 1004.1 +19.0 0.0
штиль 0 50 км 8/0
[Ac und]
+14.2 +7.9 66 +14 +14 прохладно 1009.0 1004.0
З 1 50 км 6/0
[Ac und]
+11.7 +7.6 76 +12 +12 прохладно 1008.3 1003.2
З 2 50 км 6/0
[Ac und]
+12.1 +8.4 78 +11 +11 холодно 1007.6 1002.6
З 3 40 км 8/3 600 м
[Sc diur, vesp Ac und]
+14.5 +8.9 69 +14 +16 прохладно 1007.4 1002.4 +11.0
З 3 35 км 10/8 840 м
[Sc diur, vesp Ci]
+17.2 +9.1 59 +17 +20 прохладно 1007.5 1002.5
З 1 45 км {ливн. осадки} 10/9 930 м
[Cb cap Ci]
+16.7 +9.4 62 +18 +19 прохладно 1007.2 1002.2
СЗ 1 45 км {ливн. осадки} 10/9 750 м
[Cb cap Ac cast]
+16.2 +10.1 67 +17 +17 прохладно 1007.9 1002.9
СЗ 1 50 км {ливн. осадки} 8/3 600 м
[Sc diur, vesp Ac trans Ci sp]
+13.6 +8.9 73 +14 +14 прохладно 1009.1 1004.1 +19.9 0.1
СЗ 1 45 км ясно +11.6 +7.9 78 +12 +12 холодно 1010.0 1004.9
З 1 22 км ясно +9.4 +7.8 90 +9 +9 холодно 1009.5 1004.4
З 1 30 км 8/8 1170 м
[Sc]
+9.8 +8.1 89 +9 +9 очень
холодно
1009.1 1004.0
СВ 3 40 км 8/0
[Ac und]
+14.0 +7.5 65 +13 +16 холодно 1009.4 1004.4 +8.8
С 2 40 км 9/4 960 м
[Sc diur, vesp Ac und]
+16.3 +6.2 51 +16 +21 прохладно 1009.4 1004.4
Ю 3 45 км 8/3 600 м
[Sc diur, vesp Ac und]
+15.2 +5.4 52 +15 +19 холодно 1009.2 1004.2
Ю 3 50 км 8/3 600 м
[Sc diur, vesp Ac und]
+15.2 +5.7 53 +15 +16 холодно 1008.6 1003.6
З 2 50 км в посл. час ливневой дождь 10/5 600 м
[Sc diur, vesp Ac cuf]
+13.4 +8.3 71 +13 +13 холодно 1008.8 1003.8 +18.0 0.1
З 2 50 км {ливн. осадки} 10/6 1500 м
[Sc diur, vesp Ac und]
+12.9 +7.1 68 +12 +12 холодно 1008.5 1003.5
З 1 50 км в посл. час ливневой дождь 10/6 600 м
[Sc diur, vesp Ac und]
+12.0 +8.8 81 +12 +12 прохладно 1007.5 1002.5
штиль 0 50 км слаб. ливневой дождь 10/8 600 м
[Cb calv Ac und]
+12.2 +8.3 77 +12 +12 холодно 1007.3 1002.3
Ю 2 50 км {ливн. осадки} 10/4 600 м
[Cb calv Ac und]
+13.5 +7.5 67 +13 +14 холодно 1007.7 1002.7 +11.7 0.0
Ю 2 50 км {ливн. осадки} 10/4 600 м
[Cu med, cong Ac und]
+14.1 +9.0 71 +14 +17 холодно 1007.8 1002.8
Ю 4 40 км {ливн. осадки} 10/3 600 м
[Sc diur, vesp Ac und]
+14.9 +8.6 66 +14 +16 холодно 1007.3 1002.3
Ю 3 50 км {ливн. осадки} 8/6 600 м
[Sc diur, vesp Ac trans]
+14.9 +9.3 69 +14 +15 холодно 1006.8 1001.8
ЮЗ 1 50 км {ливн. осадки} 8/3 600 м
[Sc diur, vesp Ac trans]
+13.7 +9.4 75 +14 +14 прохладно 1008.0 1003.0 +15.7 0.0
ЮЗ 3 30 км 4/0
[Ac trans]
+14.3 +11.5 83 +13 +13 прохладно 1008.2 1003.2
З 3 30 км ясно +14.0 +11.2 83 +13 +13 прохладно 1007.5 1002.5
ЮЗ 2 28 км ясно +13.8 +11.1 84 +13 +14 прохладно 1007.7 1002.7
Ю 2 30 км ясно +18.3 +12.7 70 +19 +27 по сезону 1008.1 1003.2 +13.3
Ю 4 30 км 4/3 600 м
[Cu med, cong Ci fib]
+18.4 +14.1 76 +19 +27 по сезону 1009.0 1004.1
Ю 4 25 км 8/5 300 м
[Sc diur, vesp Ac und Ci fib]
+17.8 +13.7 77 +18 +21 прохладно 1009.1 1004.2
Ю 3 30 км 4/0
[Ac und]
+17.2 +13.1 77 +17 +20 прохладно 1008.9 1003.9
Местоположение метеостанции Одесса (Одесская область, Украина): широта 46.43 долгота 30.77 высота над уровнем моря 42 м.
В архиве по умолчанию представлена погода в Одессе за последнюю неделю. Архивные данные за месяц целиком и за предыдущие месяцы, начиная с января 2011 года, Вы можете получить, выбрав интересующий диапазон дат из раскрывающегося списка и нажав кнопку "Найти!".
*Определитесь, кто Вы:
Внимание! Время в таблицах - всемирное. Для получения местного времени необходимо прибавить поправку, которая равна 2 ч.
Смотрите также архив погоды в соседних городах и на ближайших метеорологических станциях:
Партнеры нашего сайта:      
Пояснения к столбцам:
  • Ветер - указаны скорость ветра в м/с - средняя за 10 мин, порывы в срок и между сроками (в фигурных скобках) и направление, откуда дует ветер: С - северный,
  • СВ - северо-восточный, В - восточный, ЮВ - юго-восточный, Ю - южный, ЮЗ - юго-западный, З - западный, СЗ - северо-западный.
  • Видимость - горизонтальная дальность видимости в метрах или километрах. При видимости от 1 до 10 км при отсутствии осадков обычно наблюдается дымка, при ухудшении видимости до 1 км и менее - туман. В сухую погоду видимость может ухудшаться дымом, пылью или мглою.
  • Явления - указаны атмосферные явления, наблюдавшиеся в срок или в последний час перед сроком; фигурными скобками обозначены явления, наблюдавшиеся между сроками (за 1-3 часа до срока); квадратными скобками обозначены град или гололедные отложения с указанием их диаметра в мм.
  • Облачность - указаны через наклонную черту общая и нижняя облачность в баллах и высота нижней границы облаков в метрах; квадратными скобками обозначены формы облаков: Ci - перистые, Cs - перисто-слоистые, Cc - перисто-кучевые, Ac - высококучевые, As - высокослоистые, Sc - слоисто-кучевые, Ns - слоисто-дождевые, Cu - кучевые, Cb - кучево-дождевые. Подробнее классификацию облаков см. в Атласе облаков (PDF).
  • T - Температура воздуха - температура, измеренная на высоте 2 м над землей.
  • Td - Температура точки росы - температура, при понижении до которой содержащийся в воздухе водяной пар достигнет насыщения.
  • f - Относительная влажность воздуха - влажноcть воздуха, измеренная на высоте 2 м над землей.
  • Te - Эффективная температура - температура, которую ощущает одетый по сезону человек в тени. Характеристика душности погоды. При расчете учитывается влияние влажности воздуха и скорости ветра на теплоощущения человека.
  • Tes - Эффективная температура на солнце - температура, которую ощущает человек, с поправкой на солнечный нагрев. Характеристика знойности погоды. Зависит от высоты солнца над горизонтом, облачности и скорости ветра. Ночью, в пасмурную погоду, а также при ветре 12 м/с и более поправка равна нулю.
  • P - Атмосферное давление - приведенное к уровню моря атмосферное давление.
  • Po - Атмосферное давление - измеренное на уровне метеостанции атмосферное давление.
  • Tmin - Минимальная температура - минимум температуры воздуха на высоте 2 м над землей.
  • Tmax - Максимальная температура - максимум температуры воздуха на высоте 2 м над землей.
  • R - Количество осадков - Количество выпавших осадков за период времени, мм. При наведении курсора мыши на число - период времени, за который выпало указанное количество осадков.
  • R24 - Количество осадков - Количество выпавших осадков за 24 часа, мм.
  • S - Снежный покров - Высота снежного покрова, см. При наведении курсора мыши на число - состояние снежного покрова и степень покрытия местности в баллах.